Regional Weather Roundup
Issued by NWS

Home | Current Version | Previous Version | Graphics & Text | Print | Product List | Glossary On
Versions: 1 2 3 4 5 6 7 8 9 10 11 12 13 14 15 16 17 18 19 20 21 22 23 24 25 26 27 28 29 30 31 32 33 34 35 36 37 38 39 40 41 42 43 44 45 46 47 48 49 50
000
ASUS43 KMKX 182100
RWRWI

WISCONSIN REGIONAL WEATHER ROUNDUP
NATIONAL WEATHER SERVICE MILWAUKEE/SULLIVAN WI
400 PM CDT WED OCT 18 2017

NOTE: "FAIR" INDICATES FEW OR NO CLOUDS BELOW 12,000 FEET WITH NO
SIGNIFICANT WEATHER AND/OR OBSTRUCTIONS TO VISIBILITY.

WIZ001-002-006>008-014>016-023>028-182200-
NORTHWEST WISCONSIN

CITY           SKY/WX    TMP DP  RH WIND       PRES   REMARKS
SUPERIOR ARPT  SUNNY     69  23  17 W22G31    29.70R
ASHLAND        SUNNY     69  43  38 SW17G26   29.69R
HAYWARD        SUNNY     67  42  40 SW13G21   29.75S
SIREN          SUNNY     69  38  32 W13G24    29.77S
CUMBERLAND     SUNNY     64  43  45 SW12      29.80S
RICE LAKE      SUNNY     68  43  40 SW13G18   29.82S
CHETEK         SUNNY     68  48  49 MISG      29.81S
LADYSMITH      PTSUNNY   68  48  48 W16G22    29.81R
EAU CLAIRE     NOT AVBL
MENOMONIE      CLOUDY    70  48  45 SW13      29.83S
NEW RICHMOND   SUNNY     68  40  35 SW12      29.82F
OSCEOLA        SUNNY     69  42  36 W13       29.83F
$$

WIZ003>005-009-010-017-018-182200-
NORTH CENTRAL WISCONSIN

CITY           SKY/WX    TMP DP  RH WIND       PRES   REMARKS
MANITOWISH WTR PTSUNNY   68  47  45 SW17G25   29.73R
ARBOR VITAE    MOSUNNY   69  49  48 SW10G18   29.73S
WOODRUFF       MOSUNNY   69  49  48 SW10G18   29.73S
RHINELANDER    CLOUDY    69  47  45 SW14G23   29.76F
EAGLE RIVER    MOSUNNY   68  42  39 SW10G22   29.72F
LAND O LAKES   MOSUNNY   68  44  40 S8        29.72F
PHILLIPS       SUNNY     66  48  51 SW17G30   29.76R
TOMAHAWK       PTSUNNY   67  46  45 SW5       29.77S
MEDFORD        CLOUDY    69  47  45 SW12G21   29.80R
MERRILL        CLOUDY    71  47  43 SW13G24   29.79F
$$

WIZ029-030-035-036-043>047-182200-
CENTRAL WISCONSIN

CITY           SKY/WX    TMP DP  RH WIND       PRES   REMARKS
WAUSAU         LGT RAIN  70  46  42 SW16G29   29.78F
MOSINEE        MOSUNNY   72  46  40 S16G23    29.82F
MARSHFIELD     MOSUNNY   71  44  37 SW21G30   29.81F
STEVENS POINT  SUNNY     70  46  42 SW16G28   29.84F
WAUPACA        SUNNY     74  45  35 S22G28    29.86F
WAUTOMA        SUNNY     73  47  39 SW18      29.87F
WISC RAPIDS    SUNNY     73  49  42 SW15G22   29.85F
CAMP DOUGLAS   NOT AVBL
$$

WIZ011>013-019>022-031-037>040-048>050-182200-
NORTHEAST WISCONSIN

CITY           SKY/WX    TMP DP  RH WIND       PRES   REMARKS
ANTIGO         CLOUDY    68  47  48 SW23      29.81F
SHAWANO        CLOUDY    74  45  36 SW9G22    29.83F
OCONTO         SUNNY     71  48  43 SW13G23   29.83F
STURGEON BAY   SUNNY     64  51  62 S14G23    29.86F
GREEN BAY      SUNNY     70  49  47 S13G25    29.86F
MANITOWOC      SUNNY     62  50  64 S17G24    29.90F
APPLETON       MOSUNNY   70  39  32 SW23G30   29.86F
CLINTONVILLE   CLOUDY    73  45  35 SW20G26   29.84F
OSHKOSH        SUNNY     71  47  42 S22G31    29.88F
$$

WIZ032>034-041-042-053>061-182200-
SOUTHWEST WISCONSIN

CITY           SKY/WX    TMP DP  RH WIND       PRES   REMARKS
LA CROSSE      PTSUNNY   75  47  36 SW17      29.85R
SPARTA         MOSUNNY   71  47  42 S10G18    29.86F
VIROQUA        PTSUNNY   70  48  45 S16       29.89F
BOSCOBEL       SUNNY     76  45  33 S14G23    29.92R
PRAIRIE DU CHI SUNNY     73  44  34 S13       29.91R
PLATTEVILLE    SUNNY     72  47  41 S20G26    29.96S
$$

WIZ056-057-062-063-064-067-068-182200-
SOUTH CENTRAL WISCONSIN

CITY           SKY/WX    TMP DP  RH WIND       PRES   REMARKS
REEDSBURG      SUNNY     71  47  42 SW14G26   29.92R
BARABOO/DELLS  SUNNY     70  44  38 SW17G30   29.91R
LONE ROCK      NOT AVBL
MINERAL POINT  SUNNY     72  45  37 S21       29.94S
MADISON        MOSUNNY   71  44  37 S17G24    29.93F
MIDDLETON      SUNNY     72  43  35 S20G26    29.93F
WATERTOWN      SUNNY     71  43  36 S17G31    29.94F
MONROE         SUNNY     70  39  32 S17G30    29.96F
JANESVILLE     SUNNY     73  39  29 S22       29.96F
$$

WIZ051-052-058>065-066-070>072-182200-
SOUTHEAST WISCONSIN

CITY           SKY/WX    TMP DP  RH WIND       PRES   REMARKS
MILWAUKEE      MOSUNNY   72  43  35 SW28G33   29.97F
WAUKESHA       SUNNY     70  39  32 S18G26    29.97F
MILWAUKEE/TIMM SUNNY     72  37  28 S21       29.96F
RACINE         SUNNY     71  43  36 S17G26    29.99F
BURLINGTON     SUNNY     72  44  36 S18G30    29.98F
KENOSHA        SUNNY     71  42  35 SW18G28   29.99F
FOND DU LAC    SUNNY     72  42  34 S16G29    29.89F
SHEBOYGAN      SUNNY     71  45  39 S18G33    29.91F
WEST BEND      SUNNY     70  37  30 SW21G29   29.94S
JUNEAU         SUNNY     71  43  36 S16G25    29.94F
$$

LSZ147-162-182200-
LAKE SUPERIOR

STATION/POSITION TIME  TEMP    WIND        PRES    WAVE
                       AIR SEA DIR/SP/G            HT/PER
                 (UTC) (F)     (DEG/KT/KT) (MB)    (FT/S)
W MID LAKE BUOY  1950   57 53              1002.4F   2/ 5
DEVILS ISLAND    2000   61     230/ 22/ 27 1003.6S
SAXON HARBOR     2030   71     220/ 11/ 21 1004.7S
$$

LMZ867-665-643>646-182200-
LAKE MICHIGAN

STATION/POSITION TIME  TEMP    WIND        PRES    WAVE
                       AIR SEA DIR/SP/G            HT/PER
                 (UTC) (F)     (DEG/KT/KT) (MB)    (FT/S)
S GREEN BAY BUOY 2000   64 58  200/ 17/ 23 1010.6
N MID LAKE BUOY  1950   61 59  190/ 27/ 35 1010.9F   9/ 8
NORTHPORT PIER   2052   62     170/ 14/ 25 1010.2F
KEWAUNEE LAKESHO 2030   58     180/ 19/ 22 1011.6F
SHEBOYGAN LAKESH 2000   58     180/ 23/ 26 1013.4F
PORT WASHINGTON  2040   71     210/ 12/ 20 1014.6F
ATWATER BUOY     1909   63 53  180/ 16/ 19 1015.4F
MILWAUKEE LAKESH 2030   69     210/ 21/ 25   N/A
S MID LAKE BUOY  1950   62 61  180/ 21/ 25 1017.1F   6/ 6
KENOSHA   LAKESH 2000   70     190/ 16/ 26 1015.6
$$

TC  - TEMPERATURE IN CELSIUS
VSB - VISIBILITY IN STATUTE MILES
WCI - WIND CHILL INDEX
HX  - HEAT INDEX





USA.gov is the U.S. government's official web portal to all federal, state and local government web resources and services.